TimeCDT,TemperatureF,Dew PointF,Humidity,Sea Level PressureIn,VisibilityMPH,Wind Direction,Wind SpeedMPH,Gust SpeedMPH,PrecipitationIn,Events,Conditions,WindDirDegrees,DateUTC
12:53 AM,63.0,39.0,41,29.75,10.0,SSW,19.6,28.8,N/A,,Clear,200,2014-04-10 05:53:00
1:53 AM,62.1,39.9,44,29.74,10.0,SSW,17.3,23.0,N/A,,Clear,200,2014-04-10 06:53:00
2:53 AM,62.1,41.0,46,29.72,10.0,SSW,17.3,28.8,N/A,,Clear,200,2014-04-10 07:53:00
3:53 AM,60.1,42.1,51,29.70,10.0,SSW,17.3,29.9,N/A,,Clear,210,2014-04-10 08:53:00
4:53 AM,60.1,42.1,51,29.68,10.0,SSW,16.1,25.3,N/A,,Clear,210,2014-04-10 09:53:00
5:53 AM,59.0,42.1,53,29.68,10.0,SSW,17.3,25.3,N/A,,Clear,200,2014-04-10 10:53:00
6:53 AM,57.9,42.1,56,29.78,10.0,NW,13.8,-,N/A,,Clear,310,2014-04-10 11:53:00
7:53 AM,57.9,43.0,58,29.76,10.0,SW,6.9,-,N/A,,Clear,230,2014-04-10 12:53:00
9:53 AM,63.0,45.0,52,29.78,10.0,West,10.4,19.6,N/A,,Clear,260,2014-04-10 14:53:00
10:53 AM,66.0,44.1,45,29.79,10.0,NW,8.1,-,N/A,,Clear,320,2014-04-10 15:53:00
11:53 AM,66.0,41.0,40,29.81,10.0,North,10.4,-,N/A,,Clear,10,2014-04-10 16:53:00
12:53 PM,66.0,42.1,42,29.82,10.0,NE,15.0,21.9,N/A,,Clear,40,2014-04-10 17:53:00
1:53 PM,66.0,39.0,37,29.86,10.0,NNE,15.0,28.8,N/A,,Clear,30,2014-04-10 18:53:00
2:53 PM,66.9,37.9,34,29.86,10.0,NNE,15.0,-,N/A,,Clear,20,2014-04-10 19:53:00
3:53 PM,64.9,36.0,34,29.87,10.0,NNE,17.3,-,N/A,,Clear,20,2014-04-10 20:53:00
4:53 PM,62.1,34.0,35,29.87,10.0,NNE,15.0,-,N/A,,Clear,20,2014-04-10 21:53:00
6:53 PM,63.0,32.0,31,29.92,10.0,North,11.5,-,N/A,,Clear,10,2014-04-10 23:53:00
7:53 PM,59.0,28.0,31,29.94,10.0,NNE,9.2,-,N/A,,Clear,30,2014-04-11 00:53:00
8:53 PM,57.0,26.1,30,29.96,10.0,North,5.8,-,N/A,,Clear,360,2014-04-11 01:53:00
9:53 PM,54.0,25.0,33,29.98,10.0,NE,5.8,-,N/A,,Clear,40,2014-04-11 02:53:00
10:53 PM,54.0,24.1,31,29.98,10.0,NE,4.6,-,N/A,,Clear,40,2014-04-11 03:53:00
11:53 PM,52.0,25.0,35,29.98,10.0,NE,4.6,-,N/A,,Clear,50,2014-04-11 04:53:00